GW6588 Weather Reports


time (UTC)temp
F
wind
direction
speed
knots
gust
knots
rain 1hr
in
rain 24hr
in
rain mn
in
humidity
%
barometer
mb
20260505231015 65 171 0.0 4.3 0.00 0.00 0.00 31 1013.3
20260505230509 65 212 0.9 4.3 0.00 0.00 0.00 31 1013.4
20260505230047 65 0 0.9 3.5 0.00 0.00 0.00 30 1013.4
20260505225513 65 196 0.9 3.5 0.00 0.00 0.00 30 1013.4
20260505225011 65 101 0.9 6.1 0.00 0.00 0.00 32 1013.5
20260505224530 65 246 0.9 6.1 0.00 0.00 0.00 29 1013.5
20260505224011 66 89 0.9 4.3 0.00 0.00 0.00 27 1013.5
20260505223513 66 100 1.7 5.2 0.00 0.00 0.00 27 1013.4
20260505223030 67 27 1.7 5.2 0.00 0.00 0.00 26 1013.5
20260505222513 67 46 0.9 5.2 0.00 0.00 0.00 29 1013.5
20260505222013 68 86 0.9 9.6 0.00 0.00 0.00 28 1013.6
20260505221534 68 307 0.9 9.6 0.00 0.00 0.00 31 1013.5
20260505221012 68 285 0.9 6.1 0.00 0.00 0.00 30 1013.4
20260505220513 67 94 0.9 5.2 0.00 0.00 0.00 30 1013.4
20260505220027 67 176 1.7 5.2 0.00 0.00 0.00 30 1013.4
20260505215512 67 125 1.7 8.7 0.00 0.00 0.00 30 1013.5
20260505215012 67 284 1.7 8.7 0.00 0.00 0.00 30 1013.4
20260505214527 68 190 2.6 8.7 0.00 0.00 0.00 30 1013.5
20260505214014 68 313 0.9 6.1 0.00 0.00 0.00 30 1013.4
20260505213512 68 323 1.7 6.1 0.00 0.00 0.00 31 1013.5
20260505213048 68 2 0.9 3.5 0.00 0.00 0.00 31 1013.5
20260505212517 67 297 0.9 6.1 0.00 0.00 0.00 31 1013.4
20260505212012 67 207 1.7 6.1 0.00 0.00 0.00 31 1013.7
20260505211528 68 15 1.7 6.1 0.00 0.00 0.00 30 1013.7
20260505211013 67 227 0.9 5.2 0.00 0.00 0.00 31 1013.6
20260505210516 68 193 1.7 7.8 0.00 0.00 0.00 32 1013.8
20260505210030 67 272 0.9 9.6 0.00 0.00 0.00 34 1013.7
20260505205513 67 314 2.6 9.6 0.00 0.00 0.00 32 1013.7
20260505205014 67 295 2.6 7.8 0.00 0.00 0.00 32 1013.8
20260505204530 67 105 0.9 6.1 0.00 0.00 0.00 32 1013.8
20260505204012 67 255 1.7 6.1 0.00 0.00 0.00 33 1013.9
20260505203510 66 332 1.7 6.1 0.00 0.00 0.00 31 1013.7
20260505203041 67 345 0.9 8.7 0.00 0.00 0.00 32 1013.7
20260505202511 67 280 0.9 8.7 0.00 0.00 0.00 33 1013.7
20260505202011 67 359 1.7 8.7 0.00 0.00 0.00 32 1013.7
20260505201527 67 259 1.7 6.1 0.00 0.00 0.00 31 1013.8
20260505201010 68 113 1.7 4.3 0.00 0.00 0.00 30 1013.7
20260505200511 68 227 1.7 4.3 0.00 0.00 0.00 33 1013.8
20260505200035 67 158 1.7 8.7 0.00 0.00 0.00 32 1013.9
20260505195509 67 229 2.6 8.7 0.00 0.00 0.00 32 1013.9
20260505195011 68 308 1.7 7.8 0.00 0.00 0.00 31 1013.8
20260505194528 68 18 1.7 7.0 0.00 0.00 0.00 31 1013.7
20260505194013 68 50 0.9 4.3 0.00 0.00 0.00 31 1013.9
20260505193512 67 271 1.7 4.3 0.00 0.00 0.00 32 1013.8
20260505193028 67 307 1.7 8.7 0.00 0.00 0.00 33 1013.8
20260505192514 66 136 1.7 8.7 0.00 0.00 0.00 32 1013.8
20260505192012 66 164 0.9 7.0 0.00 0.00 0.00 31 1013.9
20260505191527 66 162 0.0 6.1 0.00 0.00 0.00 34 1013.9
20260505191010 66 360 2.6 6.1 0.00 0.00 0.00 32 1013.9
20260505190513 66 23 0.9 7.8 0.00 0.00 0.00 31 1013.9
20260505190032 67 290 1.7 7.8 0.00 0.00 0.00 33 1013.9
20260505185515 67 107 2.6 7.8 0.00 0.00 0.00 31 1013.9
20260505185012 68 19 1.7 7.0 0.00 0.00 0.00 35 1013.9
20260505184530 67 348 0.9 4.3 0.00 0.00 0.00 32 1014.0
20260505184013 67 75 0.9 3.5 0.00 0.00 0.00 33 1014.0
20260505183510 66 268 0.9 4.3 0.00 0.00 0.00 34 1014.0
20260505183027 65 184 2.6 5.2 0.00 0.00 0.00 35 1014.1
20260505182514 65 19 1.7 7.0 0.00 0.00 0.00 33 1014.0
20260505182014 65 252 1.7 7.0 0.00 0.00 0.00 33 1014.1
20260505181530 64 138 1.7 7.0 0.00 0.00 0.00 36 1014.0
20260505181013 64 74 1.7 7.8 0.00 0.00 0.00 31 1014.1
20260505180520 64 49 1.7 7.8 0.00 0.00 0.00 33 1014.0
20260505180030 65 123 1.7 5.2 0.00 0.00 0.00 30 1014.1
20260505175513 65 90 1.7 6.1 0.00 0.00 0.00 30 1014.1
20260505175014 65 300 1.7 6.1 0.00 0.00 0.00 30 1014.1
20260505174527 65 266 0.9 6.1 0.00 0.00 0.00 30 1014.0
20260505174009 65 26 1.7 6.1 0.00 0.00 0.00 30 1014.0
20260505173514 65 215 0.9 7.0 0.00 0.00 0.00 32 1014.1
20260505173040 64 70 1.7 7.0 0.00 0.00 0.00 34 1014.2
20260505172512 63 79 2.6 7.0 0.00 0.00 0.00 34 1014.3
20260505172010 62 79 1.7 6.1 0.00 0.00 0.00 34 1014.3
20260505171528 62 25 1.7 6.1 0.00 0.00 0.00 34 1014.2
20260505171011 63 46 2.6 6.1 0.00 0.00 0.00 33 1014.2
20260505170511 63 313 1.7 5.2 0.00 0.00 0.00 34 1014.2
20260505170029 62 81 2.6 5.2 0.00 0.00 0.00 37 1014.1
20260505165512 62 34 0.9 4.3 0.00 0.00 0.00 36 1014.1
20260505165009 62 0 0.9 4.3 0.00 0.00 0.00 35 1014.0
20260505164546 63 214 1.7 6.1 0.00 0.00 0.00 34 1014.0
20260505164012 63 291 0.9 6.1 0.00 0.00 0.00 35 1013.9
20260505163511 63 41 0.9 4.3 0.00 0.00 0.00 37 1013.9
20260505163028 62 356 0.9 3.5 0.00 0.00 0.00 38 1013.9
20260505162511 61 317 0.9 3.5 0.00 0.00 0.00 41 1013.8
20260505162012 61 46 0.9 3.5 0.00 0.00 0.00 43 1013.8
20260505161526 60 77 0.9 4.3 0.00 0.00 0.00 45 1013.8
20260505161010 59 8 1.7 4.3 0.00 0.00 0.00 46 1013.8
20260505160513 58 31 0.9 3.5 0.00 0.00 0.00 47 1013.8
20260505153044 57 51 0.0 3.5 0.00 0.00 0.00 50 1013.9
20260505152513 57 75 0.9 3.5 0.00 0.00 0.00 48 1013.9
20260505152012 57 78 2.6 3.5 0.00 0.00 0.00 47 1013.9
20260505151529 58 82 0.9 1.7 0.00 0.00 0.00 47 1013.8
20260505151010 57 319 0.9 2.6 0.00 0.00 0.00 56 1013.7
20260505150511 56 0 0.9 2.6 0.00 0.00 0.00 51 1013.7
20260505140511 53 67 0.0 2.6 0.00 0.00 0.00 60 1013.3
20260505125010 46 284 0.0 0.9 0.00 0.00 0.00 73 1012.5
20260505124529 46 0 0.0 0.9 0.00 0.00 0.00 73 1012.5
20260505124015 46 284 0.0 0.9 0.00 0.00 0.00 73 1012.5
20260505123511 46 0 0.0 0.9 0.00 0.00 0.00 73 1012.4
20260505123026 46 254 0.0 0.9 0.00 0.00 0.00 74 1012.4
20260505122508 46 216 0.0 0.9 0.00 0.00 0.00 74 1012.4
20260505122014 46 0 0.0 0.9 0.00 0.00 0.00 73 1012.4
20260505121531 46 0 0.0 0.9 0.00 0.00 0.00 72 1012.4
20260505121013 47 0 0.0 0.9 0.00 0.00 0.00 72 1012.4
20260505120514 47 0 0.0 0.9 0.00 0.00 0.00 72 1012.3
20260505120030 47 267 0.0 0.9 0.00 0.00 0.00 72 1012.2
20260505115512 46 0 0.0 0.9 0.00 0.00 0.00 73 1012.2
20260505115012 46 273 0.0 0.9 0.00 0.00 0.00 74 1012.2
20260505114537 47 273 0.0 0.9 0.00 0.00 0.00 73 1012.1
20260505114015 47 228 0.0 0.9 0.00 0.00 0.00 72 1012.1
20260505113510 47 0 0.0 0.9 0.00 0.00 0.00 73 1012.1
20260505113029 47 228 0.0 1.7 0.00 0.00 0.00 72 1012.0
20260505112509 47 256 0.0 1.7 0.00 0.00 0.00 72 1011.9
20260505112012 46 0 0.0 1.7 0.00 0.00 0.00 72 1011.9
20260505111533 46 226 0.0 0.9 0.00 0.00 0.00 75 1011.9
20260505111011 46 0 0.0 0.9 0.00 0.00 0.00 75 1011.7
20260505110511 46 0 0.0 0.9 0.00 0.00 0.00 75 1011.5
20260505101010 48 262 0.0 0.9 0.00 0.00 0.00 69 1011.2
20260505100512 48 267 0.0 0.9 0.00 0.00 0.00 70 1011.2
20260505095512 49 271 0.0 0.9 0.00 0.00 0.00 68 1011.2
20260505095011 49 271 0.0 1.7 0.00 0.00 0.00 67 1011.2
20260505094012 49 271 0.9 0.9 0.00 0.00 0.00 66 1011.2
20260505093510 49 276 0.0 0.9 0.00 0.00 0.00 66 1011.2
20260505092512 49 280 0.0 0.9 0.00 0.00 0.00 67 1011.3
20260505092011 49 0 0.0 1.7 0.00 0.00 0.00 68 1011.3
20260505091527 49 273 0.0 1.7 0.00 0.00 0.00 66 1011.4
20260505091011 49 274 0.0 0.9 0.00 0.00 0.00 67 1011.3
20260505090510 49 268 0.0 0.9 0.00 0.00 0.00 66 1011.4
20260505090048 49 274 0.0 0.9 0.00 0.00 0.00 66 1011.4
20260505085514 49 271 0.0 0.9 0.00 0.00 0.00 66 1011.4
20260505085010 49 271 0.0 0.9 0.00 0.00 0.00 66 1011.5
20260505084534 49 0 0.0 0.9 0.00 0.00 0.00 67 1011.5
20260505084010 49 271 0.0 0.9 0.00 0.00 0.00 64 1011.5
20260505083511 50 271 0.9 0.9 0.00 0.00 0.00 63 1011.4
20260505083038 50 271 0.0 0.9 0.00 0.00 0.00 63 1011.5
20260505082511 51 0 0.0 0.9 0.00 0.00 0.00 63 1011.5
20260505082010 51 271 0.0 1.7 0.00 0.00 0.00 61 1011.6
20260505081548 51 251 0.0 1.7 0.00 0.00 0.00 61 1011.6
20260505081010 51 259 0.0 0.9 0.00 0.00 0.00 62 1011.6
20260505080508 51 269 0.0 0.9 0.00 0.00 0.00 62 1011.7
20260505080038 51 264 0.9 1.7 0.00 0.00 0.00 61 1011.6
20260505075510 51 257 0.9 1.7 0.00 0.00 0.00 61 1011.6
20260505075012 51 262 0.9 2.6 0.00 0.00 0.00 61 1011.6
20260505074527 51 269 0.9 2.6 0.00 0.00 0.00 61 1011.5
20260505074011 52 281 0.9 2.6 0.00 0.00 0.00 61 1011.6
20260505073511 52 250 0.9 2.6 0.00 0.00 0.00 59 1011.6
20260505073030 51 263 0.9 1.7 0.00 0.00 0.00 60 1011.6
20260505072512 52 267 0.9 1.7 0.00 0.00 0.00 59 1011.6
20260505072011 52 276 0.9 1.7 0.00 0.00 0.00 58 1011.6
20260505071530 52 278 0.9 1.7 0.00 0.00 0.00 58 1011.6
20260505071012 52 248 0.9 1.7 0.00 0.00 0.00 57 1011.4
20260505070509 52 281 0.9 2.6 0.00 0.00 0.00 58 1011.4
20260505070028 52 269 0.9 2.6 0.00 0.00 0.00 57 1011.5
20260505065511 52 273 0.9 2.6 0.00 0.00 0.00 56 1011.3
20260505065009 53 262 0.9 2.6 0.00 0.00 0.00 56 1011.4
20260505064527 53 273 0.9 2.6 0.00 0.00 0.00 56 1011.3
20260505064010 53 262 0.9 2.6 0.00 0.00 0.00 56 1011.3
20260505063513 54 261 0.9 2.6 0.00 0.00 0.00 55 1011.4
20260505063035 54 269 0.9 2.6 0.00 0.00 0.00 53 1011.3
20260505062512 54 182 0.9 2.6 0.00 0.00 0.00 52 1011.3
20260505062009 55 261 0.9 2.6 0.00 0.00 0.00 51 1011.3
20260505061532 55 253 0.0 1.7 0.00 0.00 0.00 53 1011.4
20260505061010 55 253 0.0 2.6 0.00 0.00 0.00 50 1011.4
20260505060512 55 222 0.0 2.6 0.00 0.00 0.00 51 1011.4
20260505060028 55 243 0.0 3.5 0.00 0.00 0.00 51 1011.4
20260505055512 55 275 0.9 3.5 0.00 0.00 0.00 52 1011.4
20260505055012 54 226 0.9 2.6 0.00 0.00 0.00 52 1011.3
20260505054530 54 266 0.9 3.5 0.00 0.00 0.00 52 1011.3
20260505054014 55 290 0.9 3.5 0.00 0.00 0.00 51 1011.2
20260505053511 55 263 0.9 2.6 0.00 0.00 0.00 51 1011.1
20260505053030 55 257 0.0 2.6 0.00 0.00 0.00 50 1011.2
20260505052512 56 246 0.9 3.5 0.00 0.00 0.00 48 1011.2
20260505052013 56 267 0.9 3.5 0.00 0.00 0.00 46 1011.2
20260505051530 56 237 1.7 3.5 0.00 0.00 0.00 47 1011.3
20260505051009 56 278 0.9 3.5 0.00 0.00 0.00 48 1011.2
20260505050512 55 275 0.9 3.5 0.00 0.00 0.00 49 1011.2
20260505041526 56 301 0.9 2.6 0.00 0.00 0.00 50 1010.9
20260505041013 56 279 0.9 4.3 0.00 0.00 0.00 50 1010.9
20260505040512 56 292 0.9 4.3 0.00 0.00 0.00 50 1010.8
20260505040029 56 257 0.9 4.3 0.00 0.00 0.00 49 1010.7
20260505035511 56 255 0.9 4.3 0.00 0.00 0.00 51 1010.7
20260505035009 57 255 0.9 2.6 0.00 0.00 0.00 51 1010.7
20260505034529 57 271 0.9 6.1 0.00 0.00 0.00 48 1010.6
20260505034012 57 225 0.9 6.1 0.00 0.00 0.00 48 1010.4
20260505033513 57 236 0.9 2.6 0.00 0.00 0.00 50 1010.4
20260505033035 57 264 0.9 2.6 0.00 0.00 0.00 47 1010.2
20260505032511 57 288 0.9 2.6 0.00 0.00 0.00 46 1010.2
20260505032008 57 271 0.9 1.7 0.00 0.00 0.00 48 1010.1
20260505031526 57 270 0.9 2.6 0.00 0.00 0.00 46 1010.1
20260505031012 58 257 0.9 2.6 0.00 0.00 0.00 48 1009.9
20260505030513 58 252 0.9 2.6 0.00 0.00 0.00 46 1009.9
20260505030028 58 255 0.9 3.5 0.00 0.00 0.00 46 1009.8
20260505025515 58 277 0.9 3.5 0.00 0.00 0.00 45 1009.9
20260505025011 58 252 0.9 2.6 0.00 0.00 0.00 45 1009.9
20260505024550 59 266 0.9 3.5 0.00 0.00 0.00 43 1009.8
20260505024009 59 277 1.7 3.5 0.00 0.00 0.00 43 1009.9
20260505023513 60 274 0.9 4.3 0.00 0.00 0.00 42 1009.8
20260505023036 60 260 0.9 4.3 0.00 0.00 0.00 39 1009.7
20260505022511 60 247 0.9 4.3 0.00 0.00 0.00 42 1009.7
20260505022011 61 207 1.7 3.5 0.00 0.00 0.00 38 1009.7
20260505021543 61 281 0.9 1.7 0.00 0.00 0.00 42 1009.7
20260505021012 61 273 0.0 2.6 0.00 0.00 0.00 41 1009.7
20260505020509 61 271 0.9 2.6 0.00 0.00 0.00 41 1009.7
20260505020027 61 0 0.0 2.6 0.00 0.00 0.00 40 1009.6
20260505015514 61 270 0.9 2.6 0.00 0.00 0.00 40 1009.6
20260505015010 62 283 0.0 2.6 0.00 0.00 0.00 37 1009.6
20260505014530 62 275 0.9 5.2 0.00 0.00 0.00 36 1009.4
20260505014013 62 291 0.9 5.2 0.00 0.00 0.00 38 1009.5
20260505013510 62 225 0.9 3.5 0.00 0.00 0.00 39 1009.5
20260505013029 63 275 0.9 3.5 0.00 0.00 0.00 36 1009.5
20260505012514 63 205 0.9 4.3 0.00 0.00 0.00 38 1009.5
20260505012015 63 272 0.9 4.3 0.00 0.00 0.00 36 1009.5
20260505011535 64 0 0.9 4.3 0.00 0.00 0.00 35 1009.5
20260505011011 64 285 0.9 7.0 0.00 0.00 0.00 37 1009.7
20260505010511 64 229 0.9 7.0 0.00 0.00 0.00 35 1009.6
20260505010026 64 232 0.9 6.1 0.00 0.00 0.00 33 1009.6
20260505005512 64 122 0.9 2.6 0.00 0.00 0.00 35 1009.6
20260505005012 64 0 0.0 1.7 0.00 0.00 0.00 35 1009.6
20260505004537 64 221 0.9 2.6 0.00 0.00 0.00 33 1009.6
20260505004009 65 264 0.0 2.6 0.00 0.00 0.00 34 1009.7
20260505003509 65 175 0.9 4.3 0.00 0.00 0.00 32 1009.7
20260505003028 65 160 0.0 5.2 0.00 0.00 0.00 32 1009.7
20260505002509 65 278 0.9 5.2 0.00 0.00 0.00 32 1009.6
20260505002013 65 240 0.9 2.6 0.00 0.00 0.00 33 1009.8
20260505001532 66 0 0.0 2.6 0.00 0.00 0.00 32 1009.7
20260505001008 66 229 0.9 5.2 0.00 0.00 0.00 30 1009.6
20260505000511 66 243 0.9 7.8 0.00 0.00 0.00 31 1009.6
20260505000029 67 221 1.7 7.8 0.00 0.00 0.00 30 1009.6
20260504235511 67 0 1.7 7.8 0.00 0.00 0.00 29 1009.7
20260504235015 67 350 0.9 7.0 0.00 0.00 0.00 28 1009.6
20260504234528 67 218 0.9 4.3 0.00 0.00 0.00 29 1009.6
20260504234012 67 231 0.9 3.5 0.00 0.00 0.00 30 1009.7
20260504233512 68 154 0.9 5.2 0.00 0.00 0.00 30 1009.7
20260504233028 68 195 1.7 5.2 0.00 0.00 0.00 29 1009.7
20260504232511 68 154 1.7 6.1 0.00 0.00 0.00 28 1009.7
20260504232011 68 304 0.9 6.1 0.00 0.00 0.00 27 1009.7
20260504231528 69 274 0.9 6.1 0.00 0.00 0.00 28 1009.8